Cloud_Cover
100 30 20 5 0 0 0 0 0 0 0 0 0 0 0 0 0 0 0 0 0 0 1 9 0 4 5 7 57 100 100 100 94 6 49 83 33 3 0 0 0 0 0 0
91 84 43 5 0 0 0 0 0 0 0 0 0 0 0 0 0 0 0 0 0 6 89 100 100 100 70 54 42 92 100 99 15 88 99 93 37 58 20 0 0 0 0 0
99 81 5 3 4 0 0 0 0 0 0 0 0 0 0 0 0 0 0 0 0 33 89 46 100 100 98 86 50 87 80 99 88 65 100 100 66 72 49 23 0 6 6 0
35 5 4 0 2 0 0 0 0 0 0 0 0 0 0 0 0 0 0 0 3 35 40 52 68 49 98 59 46 43 51 48 90 100 90 56 68 100 98 71 41 11 1 20
16 5 14 4 0 0 0 0 0 0 0 0 0 0 0 0 0 0 0 0 11 24 47 73 79 100 100 99 56 55 59 100 100 76 100 59 35 40 100 100 94 55 5 29
82 8 3 5 0 0 0 0 0 0 0 0 0 0 0 0 0 0 2 7 23 24 47 97 79 100 100 100 100 100 91 68 76 100 100 100 84 32 66 100 100 80 41 41
97 8 5 0 5 4 0 0 0 0 0 0 0 0 0 0 8 18 31 33 36 53 87 100 100 100 100 87 56 89 100 100 100 100 100 100 90 96 100 99 100 100 100 100
100 94 80 5 5 5 2 0 0 2 0 0 0 0 2 0 42 59 36 34 54 53 96 100 100 100 100 34 99 100 68 100 100 100 100 100 100 100 100 100 100 100 100 100
100 100 19 56 64 5 5 5 5 5 4 3 3 2 1 24 29 76 70 41 40 88 100 100 100 84 87 50 61 38 71 99 100 100 100 100 100 100 100 100 100 100 100 100
100 100 87 100 95 100 99 63 47 7 5 5 5 5 7 21 55 100 100 100 100 100 100 100 100 100 76 81 49 51 100 77 97 100 100 100 100 100 100 100 100 100 100 100
100 100 93 98 66 25 56 95 80 68 62 9 8 6 5 17 86 100 100 100 100 100 100 94 100 100 100 100 62 58 100 99 100 100 100 100 100 100 100 100 100 100 100 100
100 100 97 36 94 95 92 100 81 73 24 18 54 16 5 5 46 97 86 100 100 100 100 100 100 100 100 94 24 50 96 100 91 100 100 100 100 100 100 100 100 100 100 100
100 100 65 99 100 100 100 100 99 63 14 17 92 100 6 5 1 14 5 6 100 100 100 100 100 100 98 91 98 100 100 100 100 100 100 100 100 100 100 100 100 100 100 100
100 100 99 100 100 100 100 100 73 88 49 51 11 5 5 5 5 5 0 1 100 100 100 100 100 100 98 100 100 100 100 100 100 98 100 100 100 100 100 100 100 100 100 100
100 100 100 100 100 100 100 100 77 100 56 11 7 5 5 5 5 5 0 3 24 88 100 100 100 100 100 100 100 100 89 100 100 100 100 100 100 100 100 100 100 100 100 100
100 82 100 96 94 100 100 98 100 98 70 76 58 18 5 5 5 5 4 0 4 2 0 1 26 65 70 100 100 100 100 100 100 100 100 100 100 100 100 100 100 100 100 100
100 100 100 100 100 100 100 100 100 100 100 100 86 5 5 5 5 5 1 0 4 0 0 2 5 5 5 5 100 100 100 100 100 100 51 19 74 100 100 100 100 100 100 100
100 100 98 100 100 100 100 100 100 100 100 97 15 5 5 5 5 5 5 5 3 0 0 0 3 3 5 5 45 100 100 100 62 73 100 91 100 100 100 100 100 100 100 100
98 100 97 100 100 100 100 100 100 100 28 17 12 61 14 7 5 5 5 5 0 0 0 0 0 0 0 5 91 92 100 100 100 100 98 87 98 95 100 100 100 100 100 100
100 100 100 100 100 100 100 100 98 87 51 54 66 54 42 20 11 5 5 5 0 0 0 0 0 0 0 0 0 6 13 100 100 100 100 100 100 100 98 100 100 100 100 100
100 100 100 100 100 100 100 100 84 39 78 75 73 32 26 48 5 5 5 5 2 0 0 0 0 0 0 0 0 0 0 11 64 97 100 100 99 100 100 100 100 100 100 100
100 100 100 100 100 100 100 95 99 100 99 100 99 89 97 91 42 8 5 5 4 5 5 0 0 0 0 0 0 0 0 0 0 6 34 68 99 100 97 100 100 100 100 100
100 100 100 100 100 100 100 100 100 96 100 100 100 100 100 100 89 5 5 5 5 11 5 5 5 5 4 0 0 0 0 0 0 2 4 5 5 23 100 100 100 100 100 100
100 100 100 100 100 100 100 98 63 78 96 100 100 100 100 100 100 70 39 5 5 7 5 5 5 5 5 4 0 0 0 0 0 0 0 0 0 0 0 1 5 13 91 100
100 100 100 100 100 100 100 100 100 50 68 99 100 100 100 100 100 100 54 75 53 5 5 42 31 43 71 88 60 8 0 0 0 0 1 0 0 0 0 0 0 0 0 0
100 97 94 100 100 100 99 100 100 81 48 78 57 77 81 98 100 100 100 100 99 55 98 99 79 35 42 33 97 92 10 5 4 5 6 5 1 3 1 0 0 0 0 0
97 98 100 100 100 100 100 88 94 100 100 96 83 97 93 100 100 100 100 100 100 100 100 100 100 91 93 54 70 100 98 62 10 5 97 70 15 6 41 5 5 4 0 0